{"data":{"norad_id":43286,"epoch":"2026-05-24T21:09:40.110336Z","epoch_age_seconds":88413,"freshness":"FRESH","line1":"1 43286U 18035A   26144.88171424  .00000081  00000+0  00000+0 0  9999","line2":"2 43286  29.1250  74.5548 0017489 178.6700   1.6558  1.00273959 29849","mean_motion":1.00273959,"eccentricity":0.0017489,"inclination_deg":29.125,"raan_deg":74.5548,"arg_perigee_deg":178.67,"mean_anomaly_deg":1.6558,"bstar":0,"rev_number":2984,"period_min":1436.0657685811,"perigee_km":35712.244687206,"apogee_km":35859.72635496,"semimajor_km":42164.122521083,"source":"CELESTRAK","updated_at":"2026-05-25T13:38:23.552384Z"}}